Location: NJAA Observatory
(40.6819°N, 74.8979°W)
Time: 14:55:43
(UTC-04:00)

Iridium 56 - Visible Passes

Search period start: 27 September 2016 00:00
Search period end: 07 October 2016 00:00
Orbit: 776 x 779 km, 86.4° (Epoch: 26 September)

Date Brightness Start Highest point End Pass type
(mag) Time Alt. Az. Time Alt. Az. Time Alt. Az.
28 Sep 8.2 06:17:59 10° SE 06:22:09 25° E 06:26:20 10° NNE visible
28 Sep 8.7 20:09:46 10° NW 20:12:51 16° WNW 20:15:56 10° WSW visible
29 Sep 8.9 05:46:28 10° ESE 05:48:57 14° ENE 05:51:28 10° NE visible
29 Sep 7.8 19:35:11 10° NNW 19:39:38 29° W 19:44:03 10° SW visible
30 Sep 6.6 19:01:12 10° NNW 19:06:17 53° W 19:11:20 10° SSW visible
01 Oct 7.4 06:17:25 10° SSE 06:22:07 36° E 06:26:50 10° NNE visible
01 Oct 9.1 20:11:33 10° WNW 20:12:43 11° WNW 20:13:54 10° W visible
02 Oct 8.5 05:45:11 10° SE 05:48:51 20° E 05:52:32 10° NE visible
02 Oct 8.5 19:35:49 10° NW 19:39:34 20° W 19:43:18 10° SW visible
03 Oct 9.2 05:14:52 10° E 05:15:43 10° ENE 05:16:32 10° ENE visible
03 Oct 7.4 19:01:32 10° NNW 19:06:18 37° W 19:11:02 10° SSW visible
04 Oct 6.6 06:17:06 10° SSE 06:22:08 52° E 06:27:11 10° NNE visible
05 Oct 7.8 05:44:25 10° SE 05:48:47 28° E 05:53:11 10° NNE visible
05 Oct 8.8 19:36:51 10° NW 19:39:28 14° WNW 19:42:05 10° WSW visible
06 Oct 8.6 05:12:35 10° ESE 05:15:34 16° ENE 05:18:34 10° NE visible
06 Oct 8.2 19:02:02 10° NNW 19:06:16 26° W 19:10:29 10° SW visible
